This is the latest recevied weather packets stored in our database for station/object PP5FMM-13. If no packets are shown the sender has not sent any weather packets the latest 10 day(s).
| Time | Temp. | Humidity | Pressure | Rain* | Wind** | Luminosity | Snow |
|---|---|---|---|---|---|---|---|
| 1777836932 | 26.11° C | 56% | 1021.5 hPa | - | - | - | - |
| 1777836632 | 26.11° C | 55% | 1021.5 hPa | - | - | - | - |
| 1777836332 | 26.11° C | 56% | 1021.5 hPa | - | - | - | - |
| 1777836032 | 26.11° C | 55% | 1021.5 hPa | - | - | - | - |
| 1777835732 | 26.11° C | 55% | 1021.5 hPa | - | - | - | - |
| 1777835432 | 26.67° C | 53% | 1021.5 hPa | - | - | - | - |
| 1777835132 | 26.67° C | 53% | 1021.6 hPa | - | - | - | - |
| 1777834832 | 26.67° C | 54% | 1021.6 hPa | - | - | - | - |
| 1777834532 | 26.67° C | 52% | 1021.6 hPa | - | - | - | - |
| 1777834232 | 26.67° C | 53% | 1021.6 hPa | - | - | - | - |
| 1777833932 | 26.67° C | 51% | 1021.8 hPa | - | - | - | - |
| 1777833632 | 26.67° C | 51% | 1021.8 hPa | - | - | - | - |
| 1777833332 | 26.67° C | 52% | 1021.8 hPa | - | - | - | - |
| 1777833032 | 26.67° C | 52% | 1021.6 hPa | - | - | - | - |
| 1777832732 | 26.11° C | 52% | 1021.6 hPa | - | - | - | - |
| 1777832432 | 26.11° C | 49% | 1021.6 hPa | - | - | - | - |
| 1777832132 | 26.67° C | 51% | 1021.6 hPa | - | - | - | - |
| 1777831832 | 26.67° C | 50% | 1021.6 hPa | - | - | - | - |
| 1777831538 | 26.67° C | 49% | 1021.6 hPa | - | - | - | - |
| 1777831232 | 26.67° C | 50% | 1021.6 hPa | - | - | - | - |
| 1777830933 | 26.67° C | 49% | 1021.7 hPa | - | - | - | - |
| 1777830632 | 26.11° C | 47% | 1021.6 hPa | - | - | - | - |
| 1777830332 | 26.11° C | 48% | 1021.6 hPa | - | - | - | - |
| 1777830032 | 26.11° C | 48% | 1021.7 hPa | - | - | - | - |
| 1777829732 | 26.11° C | 47% | 1021.8 hPa | - | - | - | - |
* Rain since midnight (hover to see other rain measurements)
** Current wind speed in m/s (hover to see current wind gust speed)